Location: Cranbrook Institute of Science
(42.5830°N, 83.2450°W)
Time: 07:00:21
(UTC-04:00)

Daily predictions for brighter satellites

Satellite Brightness Start Highest point End
(mag) Time Altitude Azimuth Time Altitude Azimuth Time Altitude Azimuth
Cosmos 1727 Rocket 4.4 19:01:09 10° N 19:07:13 44° ENE 19:13:13 10° SSE
Cosmos 2333 Rocket 4.0 19:06:25 10° NNE 19:08:57 13° NE 19:11:28 10° ENE
Cosmos 2341 Rocket 4.4 19:03:18 10° SSW 19:09:32 72° W 19:15:53 10° N
Meteor 2-14 Rocket 4.4 19:04:37 10° S 19:10:40 70° E 19:16:43 10° NNE
SL-8 R/B 4.2 19:08:18 10° SW 19:12:54 48° SE 19:17:33 10° ENE
ISS -1.0 19:11:04 10° W 19:13:30 19° SW 19:15:56 10° S
Cosmos 2322 Rocket 2.4 19:08:37 10° NNW 19:14:16 79° WSW 19:19:52 10° SSE
Meteor 2-16 Rocket 4.5 19:08:19 10° S 19:14:19 64° E 19:20:23 10° NNE
Cosmos-2242 3.1 19:10:31 10° S 19:14:47 81° W 19:19:02 10° N
Tiangong 1 3.6 19:13:38 10° WSW 19:15:14 14° SSW 19:16:49 10° S
Cosmos 1624 Rocket 4.1 19:12:34 10° NNW 19:17:48 84° WSW 19:23:02 10° SSE
MTI 3.7 19:16:16 10° NNE 19:19:29 71° ESE 19:22:40 10° S
GP-B 3.2 19:15:38 10° N 19:20:00 54° E 19:24:20 10° SSE
Cosmos 1315 Rocket 3.8 19:17:26 10° NNE 19:20:56 27° ENE 19:24:26 10° SE
Cosmos 2151 3.3 19:18:04 10° N 19:22:12 44° ENE 19:26:15 10° SSE
Meteor 2-1 Rocket 4.5 19:23:04 10° SSE 19:28:35 49° E 19:34:14 10° NNE
SL-08 R/B 4.4 19:23:00 10° S 19:29:08 73° E 19:35:15 10° NNE
SKYMED 2 3.6 19:26:42 10° NNE 19:31:01 60° E 19:35:17 10° S
CZ-4C R/B 3.4 19:27:57 10° SSE 19:31:25 18° ESE 19:34:52 11° ENE
EO 1 Del DPAF 3.2 19:27:53 10° NNE 19:31:45 78° E 19:35:35 10° S
GRACE-1 4.5 19:29:49 10° SSE 19:32:08 30° E 19:34:28 10° NNE
APEX 4.4 19:31:50 10° SSE 19:33:46 15° ESE 19:34:23 14° E
Meteor 1-11 4.4 19:29:02 10° NNW 19:34:51 84° W 19:40:34 10° S
Cosmos 1743 Rocket 3.5 19:31:06 10° N 19:35:31 82° E 19:39:54 10° S
Cosmos 2322 3.8 19:31:27 10° NNW 19:37:06 55° ENE 19:42:40 10° SE
FENGYUN 3A 3.9 19:31:59 10° SE 19:37:08 48° ENE 19:42:20 10° N
RESURS DK-1 2.4 19:36:46 10° NNW 19:40:52 61° ENE 19:44:56 10° SE
Lacrosse 5 rocket 3.7 19:40:49 10° WNW 19:43:50 17° NNW 19:46:45 10° NNE
Cosmos 1842 Rocket 3.5 19:39:35 10° S 19:44:03 84° E 19:48:32 10° N
Cosmos 2058 2.8 19:41:37 10° N 19:45:50 81° E 19:49:58 10° S
SJ-6B 4.0 19:45:27 18° E 19:46:29 20° ENE 19:49:15 10° NNE
Cosmos 2221 3.0 19:42:41 10° SSE 19:46:40 38° E 19:50:43 10° NNE
ALOS 2.3 19:43:12 10° SSE 19:47:47 59° ENE 19:52:24 10° N
Atlas Centaur 2 3.7 19:50:17 10° SW 19:53:49 20° S 19:57:57 10° SE
ERS-2 4.5 19:50:59 10° SSW 19:54:11 28° W 19:57:26 10° NW
Cosmos 921 Rocket 3.0 19:50:26 10° NNW 19:54:53 66° ENE 19:59:14 10° SSE
Cosmos 2219 Rocket 3.1 19:51:05 10° N 19:55:54 29° NE 19:58:26 20° E
Cosmos 1500 Rocket 3.7 19:52:48 10° NNW 19:57:10 76° W 20:01:28 10° S
Cosmos 1703 3.6 19:53:39 10° NNW 19:57:34 68° W 20:01:27 10° S
Gbstr 26 Del rocket 4.1 19:53:58 10° NW 19:58:45 45° NNE 20:02:17 22° E
Resurs 01 Rocket 3.3 19:59:59 16° NE 19:59:59 16° NE 20:01:52 10° NNE
SPOT 3 Rocket 4.0 20:00:07 10° S 20:05:16 67° WSW 20:10:29 10° NNW
Abrixas rocket 3.6 20:02:45 10° WNW 20:05:43 31° N 20:07:04 22° NE
Cosmos 1269 Rocket 4.3 20:01:43 10° S 20:06:39 41° ESE 20:11:35 10° NNE
DMSP B5D1-3 4.4 20:02:44 10° NNE 20:07:53 85° E 20:13:02 10° SSW
SL-16 R/B 4.4 20:04:18 10° NW 20:09:01 28° WSW 20:13:43 10° SSW
Cosmos 1726 2.5 20:06:41 10° SSE 20:10:09 38° E 20:12:40 16° NNE
USA 267 3.8 20:09:11 22° ENE 20:12:40 37° SE 20:18:36 10° SSW
Cosmos 2333 4.3 20:07:07 10° NNW 20:12:45 56° ENE 20:16:57 18° SE
Cosmos 1908 3.3 20:10:09 10° S 20:14:04 81° W 20:17:59 10° N
Cosmos 2237 4.2 20:08:53 10° NNW 20:14:39 88° ENE 20:20:23 10° SSE
Cosmos 468 4.4 20:10:57 10° SSW 20:16:10 83° ESE 20:21:25 10° NNE
COSMO-SKYMED 1 3.9 20:14:56 10° N 20:19:01 40° WNW 20:23:04 10° SW
Cosmos 2098 Rocket 3.2 20:16:02 10° S 20:20:16 65° E 20:25:46 10° NNE
H-2A R/B 2.6 20:19:22 17° SSE 20:22:14 69° ENE 20:26:08 10° N
Cosmos 44 3.0 20:18:49 10° SSW 20:23:05 57° ESE 20:24:23 40° ENE
Cosmos 1452 Rocket 4.1 20:18:12 10° NNW 20:23:22 58° WSW 20:28:31 10° S
Cosmos 2237 Rocket 3.1 20:22:12 10° N 20:27:04 28° NE 20:27:16 28° ENE
Sich 1 3.2 20:24:24 10° N 20:28:39 49° ENE 20:28:50 48° E
Cosmos 1805 Rocket 3.4 20:31:13 10° N 20:35:37 90° NE 20:39:28 13° S
SL-16 R/B 4.0 20:32:54 10° N 20:35:24 16° NE 20:35:24 16° NE
Spot 2 Rocket 4.3 20:37:27 32° NE 20:37:27 32° NE 20:41:06 10° N
Aureole 2 Rocket 3.2 20:33:10 10° N 20:36:10 45° NNE 20:36:10 45° NNE
FREGAT/IRIS 3.2 20:37:46 54° WSW 20:37:50 55° W 20:40:46 10° NNW
Cosmos 1821 Rocket 3.9 20:35:51 10° S 20:42:01 86° W 20:48:19 10° N
Cosmos 44 Rocket 3.0 20:37:44 10° SSW 20:42:27 86° SE 20:43:50 46° NE
Cosmos 1110 Rocket 4.3 20:38:44 10° N 20:43:46 47° ENE 20:43:46 47° ENE
Cosmos 1666 Rocket 3.4 20:40:01 10° N 20:44:09 69° ENE 20:44:09 69° ENE
DELTA 2 R/B (1) 4.2 20:41:26 10° W 20:46:47 47° SSW 20:48:16 38° SSE
Cosmos 1934 Rocket 3.9 20:41:17 10° S 20:47:38 80° E 20:54:01 10° N
USA 234 4.1 20:46:38 30° NE 20:48:28 36° NNE 20:54:19 10° NW
Cosmos 2360 Rocket 3.9 20:45:36 10° NW 20:50:31 31° WSW 20:55:26 10° SSW
Cosmos 1980 4.1 20:45:12 10° NNW 20:50:12 43° NE 20:50:12 43° NE
COSMOS 2428 2.9 20:45:15 10° NNW 20:50:55 71° WSW 20:54:29 23° S
Cosmos 1633 Rocket 3.5 20:48:17 10° N 20:51:39 50° NNE 20:51:39 50° NNE
Cosmos 2333 Rocket 2.1 20:48:38 10° NNW 20:54:21 66° ENE 20:54:58 62° E
SL-8 R/B 4.1 20:50:42 10° W 20:55:27 57° NNW 20:56:05 52° NNE
CZ-3A R/B 4.3 20:34:03 10° WNW 20:58:32 55° NNE 21:01:29 38° ENE
Cosmos 2219 3.3 20:54:39 10° SSW 21:00:24 78° WNW 21:05:22 14° NNE
BREEZE M DEB (TANK) 4.2 21:06:15 10° WNW 21:07:40 21° NW 21:07:40 21° NW
Cosmos 2123 Rocket 4.0 21:04:05 10° N 21:10:20 78° W 21:14:34 22° S
Envisat 3.5 21:12:32 48° N 21:12:32 48° N 21:16:14 10° N
Cosmos 1605 Rocket 3.8 21:10:05 10° S 21:16:13 90° WNW 21:22:20 10° N
CZ-4C R/B 2.4 21:13:55 10° SW 21:19:06 66° NW 21:20:08 55° N
MOS 1-B Rocket 4.0 21:19:10 54° SSW 21:20:27 73° WSW 21:26:29 10° NNW
Lacrosse 5 rocket 4.2 21:23:13 10° NNW 21:23:54 11° N 21:23:54 11° N
BREEZE M DEB (TANK) 4.0 21:11:56 10° WNW 21:25:47 79° NNE 21:25:47 79° NNE
Resurs 01 Rocket 3.6 21:37:34 25° NW 21:37:34 25° NW 21:39:31 10° NNW
Cosmos 2219 Rocket 3.0 21:34:42 10° NW 21:40:01 45° WSW 21:40:12 45° WSW
Atlas Centaur 2 4.4 21:38:52 10° SW 21:40:43 14° SSW 21:40:43 14° SSW
Gbstr 26 Del rocket 4.4 21:40:37 10° WNW 21:44:51 51° W 21:44:51 51° W
USA 267 3.5 21:56:34 64° WNW 21:56:34 64° WNW 22:02:23 10° WSW
Cosmos 2237 Rocket 3.8 22:05:54 10° NW 22:09:07 31° NW 22:09:07 31° NW
SL-16 R/B 4.3 22:15:37 10° NNW 22:17:18 20° NNW 22:17:18 20° NNW
USA 234 4.5 22:34:00 36° NW 22:34:00 36° NW 22:37:35 10° NW
